User: anonymous   Login
Location: Unspecified
(0.0000°N, 0.0000°E)
Time: 13:11:35
(UTC+00:00)
Language:

Vanguard 1 - Orbit

View from above orbital plane
View from above orbital plane
View from above satellite
View from above satellite

Ground track
Ground track

The orbit data is extracted from the following two-line orbital elements,

1     5U 58002B   22186.06926835  .00000254  00000-0  33556-3 0  9994
2     5  34.2470  85.1281 1847114 116.8265 263.2842 10.84970452286550
Epoch (UTC): 05 July 2022 01:39:44
Eccentricity: 0.1847114
inclination: 34.2470°
perigee height: 649 km
apogee height: 3833 km
right ascension of ascending node: 85.1281°
argument of perigee: 116.8265°
revolutions per day: 10.84970452
mean anomaly at epoch: 263.2842°
orbit number at epoch: 28655

The dashed part of the orbit path shows where the satellite is in the earth's shadow,  

DLR